Location: Sungai Igah
(2.7333°N, 114.2500°E)
Time: 19:56:04
(UTC+00:00)

Cosmos 1812 - Pass Details

Date: 14 June 2021
Orbit: 515 x 520 km, 82.5° (Epoch: 26 July)

Event Time Altitude Azimuth Distance (km) Brightness Sun altitude
Rises 21:08:18 0° 336° (NNW) 2,617 6.3 -16.1°
Reaches altitude 10° 21:10:41 10° 323° (NW) 1,734 5.2 -15.5°
Maximum altitude 21:13:50 25° 267° (W) 1,072 3.7 -14.8°
Enters shadow 21:13:52 25° 266° (W) 1,072 3.7 -14.8°
